カタログに戻る

STARLINK-36336

運用中通信SSO
NORAD 67901·PAYLOAD·🇺🇸 United States

打ち上げ Feb 21, 2026 から Vandenberg Space Force Base

Loading…

次のパス (今後24時間)

TLE

最新Source: CelesTrak SupGP

元期: Sep 15, 2026, 04:10 UTC

1 67901C 26035Y   26258.17409722  .00106160  00000+0  32954-2 0  2580
2 67901  97.2845 190.1133 0001865  89.2592  64.8178 15.33386268    13

AllMySatでSTARLINK-36336をリアルタイム追跡

Download on the App Store